Weather History for Sioux Falls, SD

Change the Weather History Date:

Sunday, April 6, 2014

  Actual Average Record
Temperature  
Mean Temperature 50 °F 42 °F  
Max Temperature 68 °F 54 °F 88 °F (1991)
Min Temperature 31 °F 31 °F 5 °F (1982)
Degree Days  
Heating Degree Days 15 23  
Month to date heating degree days 175 144  
Since 1 July heating degree days 7623 6989  
Cooling Degree Days 0 0  
Month to date cooling degree days 0 0  
Year to date cooling degree days 0 0  
Moisture  
Dew Point 33 °F    
Average Humidity 55    
Maximum Humidity 85    
Minimum Humidity 24    
Precipitation  
Precipitation T in 0.09 in 1.60 in (2006)
Month to date precipitation 0.22 0.53  
Year to date precipitation 1.92 3.45  
Snow  
Snow 0.00 in 0.20 in 6.00 in (1909)
Month to date snowfall 2.6 1.2  
Since 1 July snowfall 44.5 41.1  
Snow Depth 0.00 in    
Sea Level Pressure  
Sea Level Pressure 29.84 in    
Wind  
Wind Speed 6 mph (South)    
Max Wind Speed 21 mph    
Max Gust Speed 25 mph    
Visibility 9 miles    
Events Rain , Thunderstorm    
T = Trace of Precipitation, MM = Missing Value Source: NWS Daily Summary

Daily Weather History Graph

Daily Weather History Graph

Search for Another Location

Airport:

Trip Planner

Search our weather history database for the weather conditions in past years. The results will help you decide how hot, cold, wet, or windy it might be!

Date:

Astronomy

Apr. 06, 2014 Rise Set
Actual Time 6:59 AM CDT 7:59 PM CDT
Civil Twilight 6:30 AM CDT 8:29 PM CDT
Nautical Twilight 5:55 AM CDT 9:03 PM CDT
Astronomical Twilight 5:19 AM CDT 9:40 PM CDT
Moon 11:56 AM CDT (4/6) 2:02 AM CDT (4/6)
Length of Visible Light 13h 58m
Length of Day
12h 59m
Waxing Crescent, 44% of the Moon is Illuminated
Apr 6
Waxing Crescent
Apr 7
First Quarter
Apr 15
Full
Apr 22
Last Quarter
Apr 29
New

Hourly Weather History & Observations

Time (CDT) Temp. Windchill Dew Point Humidity Pressure Visibility Wind Dir Wind Speed Gust Speed Precip Events Conditions
12:56 AM 45.0 °F 38.5 °F 30.0 °F 56% 29.88 in 10.0 mi South 13.8 mph - N/A   Clear
1:56 AM 43.0 °F 37.7 °F 30.0 °F 60% 29.88 in 10.0 mi SSW 9.2 mph - N/A   Clear
2:56 AM 41.0 °F 35.2 °F 30.0 °F 65% 29.87 in 10.0 mi SSW 9.2 mph - N/A   Clear
3:56 AM 42.1 °F 38.4 °F 30.0 °F 62% 29.86 in 9.0 mi SSW 5.8 mph - N/A   Clear
4:56 AM 42.1 °F 38.4 °F 30.9 °F 65% 29.85 in 8.0 mi SSW 5.8 mph - N/A   Overcast
5:56 AM 39.9 °F - 30.0 °F 68% 29.85 in 7.0 mi Calm Calm - N/A   Scattered Clouds
6:56 AM 32.0 °F - 28.0 °F 85% 29.88 in 6.0 mi Calm Calm - N/A   Mostly Cloudy
7:56 AM 33.1 °F - 28.0 °F 82% 29.89 in 5.0 mi Calm Calm - N/A   Haze
8:56 AM 43.0 °F 41.3 °F 32.0 °F 65% 29.90 in 6.0 mi WSW 3.5 mph - N/A   Haze
9:56 AM 48.0 °F - 34.0 °F 58% 29.88 in 10.0 mi Variable 4.6 mph - N/A   Partly Cloudy
10:56 AM 53.1 °F - 35.1 °F 50% 29.88 in 10.0 mi Variable 4.6 mph - N/A   Partly Cloudy
11:56 AM 57.9 °F - 36.0 °F 44% 29.86 in 10.0 mi Variable 3.5 mph - N/A   Partly Cloudy
12:56 PM 61.0 °F - 34.0 °F 36% 29.84 in 10.0 mi Variable 3.5 mph - N/A   Partly Cloudy
1:56 PM 64.0 °F - 34.0 °F 33% 29.82 in 10.0 mi Variable 3.5 mph - N/A   Partly Cloudy
2:56 PM 64.9 °F - 30.0 °F 27% 29.80 in 10.0 mi NE 6.9 mph - N/A   Partly Cloudy
3:56 PM 64.0 °F - 30.0 °F 28% 29.78 in 10.0 mi SSW 5.8 mph - N/A   Partly Cloudy
4:56 PM 68.0 °F - 30.9 °F 25% 29.78 in 10.0 mi ESE 8.1 mph - N/A   Scattered Clouds
5:56 PM 64.0 °F - 30.9 °F 29% 29.78 in 10.0 mi ENE 8.1 mph - N/A   Mostly Cloudy
6:56 PM 63.0 °F - 32.0 °F 31% 29.78 in 10.0 mi ENE 8.1 mph - N/A   Scattered Clouds
7:56 PM 57.9 °F - 32.0 °F 37% 29.78 in 10.0 mi NNE 8.1 mph - N/A   Mostly Cloudy
8:56 PM 55.0 °F - 33.1 °F 43% 29.81 in 10.0 mi North 3.5 mph - N/A   Mostly Cloudy
9:20 PM 57.0 °F - 36.0 °F 45% 29.80 in 10.0 mi SSW 8.1 mph - 0.00 in Rain , Thunderstorm Light Thunderstorms and Rain
9:48 PM 55.0 °F - 41.0 °F 59% 29.81 in 10.0 mi South 19.6 mph - 0.00 in   Mostly Cloudy
9:56 PM 54.0 °F - 39.9 °F 59% 29.82 in 10.0 mi South 17.3 mph - 0.00 in   Mostly Cloudy
10:56 PM 50.0 °F - 42.1 °F 74% 29.84 in 10.0 mi South 11.5 mph - 0.00 in   Mostly Cloudy